Friendship, ME

4:36 AM EST on February 06, 2016 (GMT -0500)
Knox County Regional

Weather History for KRKD - June, 2013

Change the Weather History Date:

Wednesday, June 26, 2013

  Actual Average Record
Temperature  
Mean Temperature 65 °F -  
Max Temperature 75 °F 69 °F 86 °F (1999)
Min Temperature 55 °F 53 °F 48 °F (2015)
Growing Degree Days 15 (Base 50)    
Moisture  
Dew Point 62 °F    
Average Humidity 94    
Maximum Humidity 100    
Minimum Humidity 83    
Precipitation  
Precipitation 0.14 in - - ()
Sea Level Pressure  
Sea Level Pressure 29.77 in    
Wind  
Wind Speed 5 mph (ENE)    
Max Wind Speed 15 mph    
Max Gust Speed 22 mph    
Visibility 7 miles    
Events      
Averages and records for this station are not official NWS values.
T = Trace of Precipitation, MM = Missing Value Source: NWS Daily Summary

Daily Weather History Graph

Daily Weather History Graph

Search for Another Location

Airport or City:

Trip Planner

Search our weather history database for the weather conditions in past years. The results will help you decide how hot, cold, wet, or windy it might be!

Date:

Astronomy

Jun. 26, 2013 Rise Set
Actual Time 4:54 AM EDT 8:23 PM EDT
Civil Twilight 4:18 AM EDT 8:59 PM EDT
Nautical Twilight 3:30 AM EDT 9:47 PM EDT
Astronomical Twilight 2:29 AM EDT 10:48 PM EDT
Moon 10:34 PM EDT (6/26) 8:50 AM EDT (6/26)
Length of Visible Light 16h 41m
Length of Day
15h 28m
Waning Gibbous, 85% of the Moon is Illuminated
Jun 26
Waning Gibbous
Jun 30
Last Quarter
Jul 8
New
Jul 15
First Quarter
Jul 22
Full

Hourly Weather History & Observations

Time (EDT) Temp. Dew Point Humidity Pressure Visibility Wind Dir Wind Speed Gust Speed Precip Events Conditions
12:15 AM 66.2 °F 64.4 °F 94% 29.70 in 7.0 mi WSW 5.8 mph - N/A   Partly Cloudy
12:35 AM 66.2 °F 66.2 °F 100% 29.69 in 6.0 mi WNW 5.8 mph - N/A   Partly Cloudy
12:55 AM 66.2 °F 66.2 °F 100% 29.69 in 7.0 mi West 4.6 mph - N/A   Mostly Cloudy
1:15 AM 66.2 °F 66.2 °F 100% 29.69 in 7.0 mi WNW 6.9 mph - N/A   Mostly Cloudy
1:35 AM 68.0 °F 66.2 °F 94% 29.69 in 8.0 mi WNW 4.6 mph - N/A   Scattered Clouds
1:55 AM 68.0 °F 68.0 °F 100% 29.69 in 7.0 mi NNW 3.5 mph - N/A   Mostly Cloudy
2:15 AM 68.0 °F 66.2 °F 94% 29.69 in 9.0 mi North 3.5 mph - N/A   Mostly Cloudy
2:35 AM 68.0 °F 66.2 °F 94% 29.68 in 6.0 mi Calm Calm - N/A   Mostly Cloudy
3:15 AM 66.2 °F 64.4 °F 94% 29.69 in 5.0 mi East 3.5 mph - N/A   Overcast
3:35 AM 66.2 °F 64.4 °F 94% 29.70 in 5.0 mi ESE 4.6 mph - N/A   Overcast
3:55 AM 60.8 °F 60.8 °F 100% 29.72 in 1.0 mi SSE 4.6 mph - 0.02 in   Overcast
4:15 AM 60.8 °F 59.0 °F 94% 29.72 in 3.0 mi Calm Calm - 0.02 in   Overcast
4:35 AM 60.8 °F 60.8 °F 100% 29.71 in 3.0 mi Calm Calm - 0.03 in   Overcast
4:55 AM 60.8 °F 59.0 °F 94% 29.71 in 5.0 mi Calm Calm - 0.03 in   Overcast
5:15 AM 62.6 °F 62.6 °F 100% 29.70 in 3.0 mi Calm Calm - N/A   Overcast
5:35 AM 62.6 °F 62.6 °F 100% 29.70 in 0.5 mi Calm Calm - N/A   Overcast
5:55 AM 62.6 °F 62.6 °F 100% 29.71 in 0.2 mi Calm Calm - N/A   Overcast
6:35 AM 64.4 °F 62.6 °F 94% 29.71 in 2.0 mi WNW 3.5 mph - N/A   Overcast
6:55 AM 64.4 °F 62.6 °F 94% 29.72 in 3.0 mi WNW 4.6 mph - N/A   Overcast
7:15 AM 66.2 °F 66.2 °F 100% 29.72 in 4.0 mi WNW 3.5 mph - N/A   Overcast
7:35 AM 66.2 °F 64.4 °F 94% 29.72 in 2.5 mi Calm Calm - N/A   Overcast
7:55 AM 68.0 °F 68.0 °F 100% 29.72 in 1.0 mi Calm Calm - N/A   Overcast
8:15 AM 69.8 °F 68.0 °F 94% 29.73 in 5.0 mi West 4.6 mph - N/A   Overcast
8:35 AM 69.8 °F 69.8 °F 100% 29.73 in 7.0 mi WSW 3.5 mph - N/A   Overcast
8:55 AM 71.6 °F 69.8 °F 94% 29.73 in 10.0 mi NNW 3.5 mph - N/A   Scattered Clouds
9:15 AM 73.4 °F 71.6 °F 94% 29.74 in 10.0 mi Calm Calm - N/A   Scattered Clouds
9:35 AM 73.4 °F 71.6 °F 94% 29.74 in 10.0 mi North 4.6 mph - N/A   Partly Cloudy
10:15 AM 75.2 °F 69.8 °F 83% 29.76 in 10.0 mi NE 10.4 mph - N/A   Partly Cloudy
10:55 AM 73.4 °F 69.8 °F 88% 29.76 in 10.0 mi NE 6.9 mph - N/A   Clear
11:15 AM 71.6 °F 68.0 °F 88% 29.76 in 10.0 mi NNE 6.9 mph - N/A   Clear
11:35 AM 73.4 °F 69.8 °F 88% 29.76 in 10.0 mi NNE 8.1 mph 16.1 mph N/A   Clear
11:55 AM 73.4 °F 68.0 °F 83% 29.76 in 10.0 mi NNE 10.4 mph - N/A   Clear
12:15 PM 73.4 °F 68.0 °F 83% 29.77 in 10.0 mi NE 8.1 mph - N/A   Partly Cloudy
12:35 PM 71.6 °F 68.0 °F 88% 29.77 in 10.0 mi NNE 12.7 mph 17.3 mph N/A   Scattered Clouds
12:55 PM 71.6 °F 68.0 °F 88% 29.77 in 10.0 mi NNE 11.5 mph 17.3 mph N/A   Mostly Cloudy
1:15 PM 73.4 °F 69.8 °F 88% 29.78 in 10.0 mi NNE 6.9 mph - N/A   Overcast
1:35 PM 69.8 °F 64.4 °F 83% 29.79 in 8.0 mi ENE 15.0 mph 21.9 mph N/A   Mostly Cloudy
1:55 PM 64.4 °F 60.8 °F 88% 29.79 in 6.0 mi East 12.7 mph - N/A   Overcast
2:15 PM 62.6 °F 59.0 °F 88% 29.79 in 8.0 mi East 15.0 mph 20.7 mph N/A   Overcast
2:35 PM 62.6 °F 59.0 °F 88% 29.79 in 10.0 mi East 11.5 mph - N/A   Overcast
2:55 PM 62.6 °F 59.0 °F 88% 29.80 in 9.0 mi East 10.4 mph - N/A   Overcast
3:15 PM 62.6 °F 59.0 °F 88% 29.81 in 10.0 mi ENE 8.1 mph - N/A   Overcast
3:35 PM 62.6 °F 59.0 °F 88% 29.82 in 8.0 mi East 8.1 mph - N/A   Overcast
3:55 PM 60.8 °F 59.0 °F 94% 29.81 in 7.0 mi East 9.2 mph - N/A   Overcast
4:15 PM 60.8 °F 59.0 °F 94% 29.82 in 7.0 mi East 8.1 mph - N/A   Overcast
4:35 PM 60.8 °F 59.0 °F 94% 29.82 in 7.0 mi East 8.1 mph - 0.01 in   Overcast
4:55 PM 60.8 °F 57.2 °F 88% 29.82 in 5.0 mi ESE 6.9 mph - 0.01 in   Overcast
5:15 PM 57.2 °F 57.2 °F 100% 29.82 in 5.0 mi East 6.9 mph - N/A   Overcast
5:35 PM 57.2 °F 55.4 °F 94% 29.83 in 4.0 mi ESE 8.1 mph - 0.01 in   Overcast
5:55 PM 57.2 °F 57.2 °F 100% 29.83 in 3.0 mi East 5.8 mph - 0.02 in   Overcast
6:15 PM 57.2 °F 57.2 °F 100% 29.83 in 4.0 mi East 4.6 mph - 0.01 in   Overcast
6:35 PM 57.2 °F 57.2 °F 100% 29.83 in 5.0 mi East 5.8 mph - 0.02 in   Overcast
6:55 PM 57.2 °F 57.2 °F 100% 29.83 in 5.0 mi East 5.8 mph - 0.03 in   Overcast
7:15 PM 59.0 °F 57.2 °F 94% 29.83 in 7.0 mi ENE 8.1 mph - N/A   Overcast
7:35 PM 59.0 °F 57.2 °F 94% 29.84 in 9.0 mi East 8.1 mph - 0.01 in   Overcast
7:55 PM 57.2 °F 57.2 °F 100% 29.84 in 8.0 mi ESE 5.8 mph - 0.01 in   Overcast
8:15 PM 57.2 °F 57.2 °F 100% 29.84 in 8.0 mi ESE 8.1 mph - 0.01 in   Overcast
8:35 PM 57.2 °F 57.2 °F 100% 29.83 in 10.0 mi ESE 10.4 mph - 0.01 in   Overcast
8:55 PM 57.2 °F 55.4 °F 94% 29.82 in 10.0 mi East 9.2 mph - 0.02 in   Overcast
9:15 PM 55.4 °F 55.4 °F 100% 29.87 in 7.0 mi NW 3.5 mph - N/A   Overcast
9:35 PM 57.2 °F 55.4 °F 94% 29.87 in 10.0 mi NE 6.9 mph - N/A   Overcast
9:55 PM 59.0 °F 57.2 °F 94% 29.88 in 10.0 mi NNE 4.6 mph - N/A   Overcast
10:15 PM 59.0 °F 57.2 °F 94% 29.86 in 10.0 mi East 8.1 mph - N/A   Overcast
10:35 PM - - N/A% 29.86 in 10.0 mi East 9.2 mph - N/A   Mostly Cloudy
10:55 PM 57.2 °F 55.4 °F 94% 29.87 in 10.0 mi East 6.9 mph - N/A   Mostly Cloudy
11:15 PM 57.2 °F 55.4 °F 94% 29.87 in 10.0 mi East 6.9 mph - N/A   Mostly Cloudy
11:35 PM 57.2 °F 55.4 °F 94% 29.88 in 10.0 mi ENE 6.9 mph - N/A   Overcast
11:55 PM 57.2 °F 55.4 °F 94% 29.87 in 10.0 mi East 8.1 mph - N/A   Overcast